Flag for Switzerland Weather past 2 weeks in Binningen, Basel-Land, Switzerland

Now
65 °F

Overcast.


Feels Like: 65 °F
Forecast: 48 / 65 °F
Wind: 2 mph from Northwest

Location: Bale-Mulhouse

Current Time: Apr 26, 2015 at 5:52:44 PM

Latest Report: Apr 26, 2015 at 5:00 PM


Visibility: 13 mi

Pressure: 29.68 "Hg

Humidity: 66%

Dew point: 53 °F

Location of BinningenLocation

Historic Weather in Binningen — Graph

°F

Binningen temperature yesterday

Maximum temperature yesterday: 65 °F (at 12:00 PM)
Minimum temperature yesterday: 48 °F (at 1:00 AM)
Average temperature yesterday: 56 °F

Past Weeks' High & Low Weather Summary

 TemperatureHumidityPressure
High79 °F (Apr 15, 4:00 PM)98% (Apr 26, 6:00 AM)30.49 "Hg (Apr 26, 6:00 AM)
Low32 °F (Apr 19, 7:00 AM)19% (Apr 24, 7:00 PM)29.69 "Hg (Apr 26, 4:00 PM)
Average55 °F63%30.15 "Hg
* Reported Apr 11 4:00 PM — Apr 26 4:00 PM, Binningen, Weather by CustomWeather, © 2015

Note: Actual official high and low records may vary slightly from our data, if they occured in-between our weather recording intervals... More about our weather records

Advertising

Binningen weather history for previous 24 hours

 ConditionsComfort  
Time TempWeatherWind HumidityBarometerVisibility
4:00 PM
Sun, Apr 26
69 °FOvercast.3 mph52%29.69 "Hg12 mi
3:00 PM68 °FOvercast.5 mph52%29.73 "Hg12 mi
2:00 PM67 °FOvercast.6 mph55%29.75 "Hg12 mi
1:00 PM67 °FOvercast.5 mph58%29.78 "Hg12 mi
12:00 PM65 °FPartly sunny.3 mph58%29.80 "Hg12 mi
11:00 AM62 °FPartly sunny.7 mph70%29.83 "Hg12 mi
10:00 AM58 °FPartly sunny.6 mph82%29.85 "Hg12 mi
9:00 AM57 °FPartly sunny.5 mph84%29.85 "Hg12 mi
8:00 AM52 °FScattered clouds.3 mph98%29.86 "Hg12 mi
7:00 AM48 °FDense fog.2 mph98%29.87 "Hg1 mi
6:00 AM50 °FFog.3 mph98%29.87 "Hg2 mi
4:00 AM49 °FLight snow. Dense fog.3 mph96%29.89 "Hg0 mi
3:00 AM52 °FCool.3 mph95%29.90 "Hg4 mi
2:00 AM54 °FOvercast.3 mph94%29.90 "Hg7 mi
1:00 AM55 °FOvercast.7 mph94%29.91 "Hg7 mi
12:00 AM54 °FOvercast.3 mph96%29.92 "Hg4 mi
10:00 PM
Sat, Apr 25
55 °FOvercast.1 mph92%29.91 "Hg13 mi
9:00 PM55 °FOvercast.3 mph94%29.91 "Hg16 mi
8:00 PM56 °FSprinkles. Overcast.6 mph89%29.90 "Hg9 mi
7:00 PM61 °FOvercast.9 mph73%29.87 "Hg19 mi
6:00 PM61 °FOvercast.3 mph80%29.86 "Hg19 mi
5:00 PM60 °FOvercast.6 mph80%29.87 "Hg19 mi
Weather by CustomWeather, © 2015

See weather overviewHow to use our weather pages